Weather History for KAHN - December, 2011

Change the Weather History Date:

Saturday, December 17, 2011

  Actual Average Record
Temperature  
Mean Temperature 48 °F 45 °F  
Max Temperature 58 °F 55 °F 77 °F (1933)
Min Temperature 38 °F 35 °F 14 °F (1943)
Degree Days  
Heating Degree Days 17 20  
Month to date heating degree days 248 313  
Since 1 July heating degree days 743 793  
Moisture  
Dew Point 35 °F    
Average Humidity 62    
Maximum Humidity 93    
Minimum Humidity 30    
Precipitation  
Precipitation 0.00 in 0.12 in 1.69 in (1888)
Month to date precipitation 0.47 2.09  
Year to date precipitation 33.90 44.69  
Snow  
Snow 0.00 in 0.00 in 0.00 in (2001)
Month to date snowfall 0.0 0.0  
Since 1 July snowfall 0.0 0.0  
Snow Depth -    
Sea Level Pressure  
Sea Level Pressure 30.21 in    
Wind  
Wind Speed 8 mph (WNW)    
Max Wind Speed 17 mph    
Max Gust Speed 22 mph    
Visibility 10 miles    
Events      
T = Trace of Precipitation, MM = Missing Value Source: NWS Daily Summary

Daily Weather History Graph

Daily Weather History Graph

Search for Another Location

Airport or City:

Trip Planner

Search our weather history database for the weather conditions in past years. The results will help you decide how hot, cold, wet, or windy it might be!

Date:

Astronomy

Dec. 17, 2011 Rise Set
Actual Time 7:32 AM EST 5:26 PM EST
Civil Twilight 7:04 AM EST 5:54 PM EST
Nautical Twilight 6:33 AM EST 6:25 PM EST
Astronomical Twilight 6:02 AM EST 6:55 PM EST
Moon No Moon Rise 12:04 PM EST (12/17)
Length of Visible Light 10h 49m
Length of Day
9h 54m
Waning Gibbous, 54% of the Moon is Illuminated
Dec 17
Waning Gibbous
Dec 17
Last Quarter
Dec 24
New
Jan 1
First Quarter
Jan 9
Full

Hourly Weather History & Observations

Time (EST) Temp. Windchill Dew Point Humidity Pressure Visibility Wind Dir Wind Speed Gust Speed Precip Events Conditions
12:51 AM 51.1 °F - 48.0 °F 89% 30.13 in 10.0 mi West 4.6 mph - N/A   Clear
1:51 AM 50.0 °F - 46.9 °F 89% 30.14 in 10.0 mi WNW 6.9 mph - N/A   Clear
2:51 AM 48.0 °F - 45.0 °F 89% 30.15 in 10.0 mi West 5.8 mph - N/A   Clear
3:51 AM 46.9 °F - 44.1 °F 90% 30.16 in 10.0 mi WNW 8.1 mph - N/A   Clear
4:51 AM 46.0 °F 41.9 °F 43.0 °F 89% 30.17 in 10.0 mi WNW 8.1 mph - N/A   Clear
5:51 AM 45.0 °F 41.8 °F 42.1 °F 90% 30.18 in 10.0 mi WNW 5.8 mph - N/A   Partly Cloudy
6:08 AM 44.6 °F 40.7 °F 42.8 °F 93% 30.18 in 10.0 mi West 6.9 mph - N/A   Mostly Cloudy
6:51 AM 43.0 °F 39.5 °F 41.0 °F 93% 30.19 in 10.0 mi West 5.8 mph - N/A   Mostly Cloudy
7:29 AM 42.8 °F 37.5 °F 39.2 °F 87% 30.20 in 10.0 mi WNW 9.2 mph - N/A   Scattered Clouds
7:51 AM 42.8 °F 37.5 °F 39.2 °F 87% 30.20 in 10.0 mi WNW 9.2 mph - N/A   Mostly Cloudy
8:27 AM 44.6 °F 40.2 °F 39.2 °F 81% 30.22 in 10.0 mi WNW 8.1 mph 17.3 mph N/A   Mostly Cloudy
8:51 AM 44.1 °F 37.1 °F 37.9 °F 79% 30.25 in 10.0 mi WNW 15.0 mph 21.9 mph N/A   Scattered Clouds
9:51 AM 48.0 °F - 37.0 °F 66% 30.24 in 10.0 mi NW 8.1 mph - N/A   Clear
10:51 AM 51.1 °F - 37.0 °F 59% 30.24 in 10.0 mi West 9.2 mph - N/A   Clear
11:51 AM 53.1 °F - 33.1 °F 47% 30.24 in 10.0 mi WNW 11.5 mph - N/A   Clear
12:51 PM 55.9 °F - 30.9 °F 39% 30.20 in 10.0 mi NW 6.9 mph - N/A   Clear
1:51 PM 57.0 °F - 32.0 °F 39% 30.18 in 10.0 mi WNW 9.2 mph - N/A   Clear
2:51 PM 57.2 °F - 26.6 °F 31% 30.18 in 10.0 mi WNW 10.4 mph 17.3 mph N/A   Clear
3:51 PM 57.0 °F - 30.0 °F 36% 30.18 in 10.0 mi West 8.1 mph - N/A   Clear
4:51 PM 54.0 °F - 28.9 °F 38% 30.20 in 10.0 mi WNW 6.9 mph - N/A   Clear
5:51 PM 50.0 °F - 30.0 °F 46% 30.20 in 10.0 mi WNW 8.1 mph - N/A   Clear
6:51 PM 48.0 °F - 30.0 °F 50% 30.22 in 10.0 mi WNW 9.2 mph - N/A   Clear
7:51 PM 46.0 °F 41.0 °F 28.0 °F 50% 30.25 in 10.0 mi WNW 10.4 mph 18.4 mph N/A   Clear
8:51 PM 43.0 °F 38.2 °F 25.0 °F 49% 30.27 in 10.0 mi WNW 8.1 mph - N/A   Clear
9:51 PM 42.1 °F 37.7 °F 25.0 °F 51% 30.27 in 10.0 mi WNW 6.9 mph - N/A   Clear
10:51 PM 39.9 °F 35.1 °F 24.1 °F 53% 30.27 in 10.0 mi WNW 6.9 mph - N/A   Clear
11:51 PM 39.0 °F 35.7 °F 23.0 °F 53% 30.27 in 10.0 mi WNW 4.6 mph - N/A   Clear